Regional Weather Roundup
Issued by NWS Charleston, WV

Home | Current Version | Previous Version | Graphics & Text | Print | Product List | Glossary On
Versions: 1 2 3 4 5 6 7 8 9 10 11 12 13 14 15 16 17 18 19 20 21 22 23 24 25 26 27 28 29 30 31 32 33 34 35 36 37 38 39 40 41 42 43 44 45 46 47 48 49 50
000
ASUS41 KRLX 270810
RWRRLX
West Virginia Regional Weather Roundup
National Weather Service Charleston WV
400 AM EDT THU APR 27 2017

Note: "fair" indicates few or no clouds below 12,000 feet with no
significant weather and/or obstructions to visibility.

WVZ003-270900-
Northern Panhandle of West Virginia

CITY           SKY/WX    TMP DP  RH WIND       PRES   REMARKS
WHEELING       CLEAR     67  53  61 S9        29.68S
$$

WVZ009-270900-
Northwest West Virginia

CITY           SKY/WX    TMP DP  RH WIND       PRES   REMARKS
PARKERSBURG    CLEAR     68  56  65 S7        29.69R
$$

WVZ006-270900-
Western West Virginia

CITY           SKY/WX    TMP DP  RH WIND       PRES   REMARKS
HUNTINGTON     CLEAR     65  54  67 SE5       29.64F
$$

WVZ015-270900-
West Central West Virginia

CITY           SKY/WX    TMP DP  RH WIND       PRES   REMARKS
CHARLESTON     CLEAR     60  55  83 CALM      29.69R
$$

WVZ022-031-270900-
North Central West Virginia

CITY           SKY/WX    TMP DP  RH WIND       PRES   REMARKS
CLARKSBURG     CLEAR     55  53  93 CALM      29.71S
MORGANTOWN     CLEAR     64  54  69 SE3       29.73R
$$

WVZ025-035-042-045-270900-
Southern West Virginia

CITY           SKY/WX    TMP DP  RH WIND       PRES   REMARKS
BECKLEY        CLEAR     62  54  74 SE10      29.80S
LOGAN          NOT AVBL
BLUEFIELD      CLEAR     62  51  67 SW13      29.83R
LEWISBURG      CLEAR     55  53  92 CALM      29.83S
$$

WVZ047-270900-
Northern Mountains of West Virginia

CITY           SKY/WX    TMP DP  RH WIND       PRES   REMARKS
ELKINS         CLEAR     50  48  93 CALM      29.78R
$$

WVZ052-270900-
Eastern Panhandle of West Virginia

CITY           SKY/WX    TMP DP  RH WIND       PRES   REMARKS
MARTINSBURG    CLEAR     55  53  93 N3        29.79S FOG
PETERSBURG     FOG       54  54  99 CALM      29.78S VSB 1/4
$$



USA.gov is the U.S. government's official web portal to all federal, state and local government web resources and services.